Regional Weather Roundup
Issued by NWS Cleveland, OH

Home | Current Version | Previous Version | Graphics & Text | Print | Product List | Glossary On
Versions: 1 2 3 4 5 6 7 8 9 10 11 12 13 14 15 16 17 18 19 20 21 22 23 24 25 26 27 28 29 30 31 32 33 34 35 36 37 38 39 40 41 42 43 44 45 46 47 48 49 50
000
ASUS41 KCLE 191300
RWRCLE
OHIO REGIONAL WEATHER ROUNDUP
NATIONAL WEATHER SERVICE WILMINGTON, OH
900 AM EDT SAT APR 19 2014

NOTE: "FAIR" INDICATES FEW OR NO CLOUDS BELOW 12,000 FEET WITH NO
SIGNIFICANT WEATHER AND/OR OBSTRUCTIONS TO VISIBILITY.

OHZ001>008-015>018-024>027-034-035-043-044-191400-
   NORTHWEST OHIO

CITY           SKY/WX    TMP DP  RH WIND       PRES   REMARKS
DEFIANCE       SUNNY     41  31  67 NE13      30.43R
FINDLAY        SUNNY     40  33  76 E13       30.40R
TOLEDO EXPRESS SUNNY     40  31  70 NE12      30.44R
TOLEDO METCALF SUNNY     41  32  70 NE8G18    30.45R
LIMA           SUNNY     42  35  76 NE14      30.39R
$$

OHZ009>014-019>023-028>033-038-089-191400-
   NORTHEAST OHIO

CITY           SKY/WX    TMP DP  RH WIND       PRES   REMARKS
CLE-HOPKINS    SUNNY     42  33  70 N14       30.45R
CLE-LAKEFRONT  SUNNY     39  33  79 NE14      30.42R
CUY CO. ARPT   SUNNY     39  32  75 NE9       30.42R
LORAIN-ELYRIA  SUNNY     42  32  67 NE9       30.42R
ASHTABULA      SUNNY     39  30  70 MISG      30.43R
AKRON-CANTON   MOSUNNY   41  34  76 NE9       30.39R
WOOSTER        NOT AVBL
MANSFIELD      SUNNY     41  35  79 NE7       30.38R
YOUNGSTOWN     MOSUNNY   42  31  64 N7        30.39R
$$

OHZ042-051>053-060>062-070>072-077>081-191400-
  SOUTHWEST OHIO

CITY           SKY/WX    TMP DP  RH WIND       PRES   REMARKS
CINC-COVINGTON MOSUNNY   53  41  63 NE14      30.30R
CINC-LUNKEN    SUNNY     52  43  71 NE10      30.32R
HAMILTON       SUNNY     53  43  68 NE9       30.34R
DAYTON         NOT AVBL
WRIGHT-PAT AFB SUNNY     48  41  76 NE14      30.34R
DAYTON GENERAL SUNNY     50  41  71 NE14      30.32R
WILMINGTON     SUNNY     50  41  71 NE14G22   30.32R
$$

OHZ036-037-039>041-045>050-054>059-063>069-073>076-082>088-191400-
  CENTRAL AND SOUTHEAST OHIO

CITY           SKY/WX    TMP DP  RH WIND       PRES   REMARKS
COLUMBUS       MOSUNNY   51  39  63 NE10G17   30.34R
OSU AIRPORT    SUNNY     48  41  76 N9        30.35R
BOLTON FIELD   SUNNY     48  43  81 NE12      30.35R
RICKENBACK AFB NOT AVBL
NEWARK         SUNNY     50  39  66 NE7       30.34R
MARION         SUNNY     41  35  79 NE12      30.39R
LANCASTER      SUNNY     50  41  71 NE9       30.33R
ZANESVILLE     SUNNY     49  40  71 VRB7      30.34R
NEW PHILLY     SUNNY     47  37  68 NE5       30.38R
$$



USA.gov is the U.S. government's official web portal to all federal, state and local government web resources and services.